Theta_e
334 334 335 335 335 335 335 334 333 333 333 333 332 332 332 332 332 332 333 333 333 333 333 334 334 334 334 334 333 333 333 332 332 331 331 331 331 331 331 332 332 332 331 331 331 329 329 329 329 329 329 328 328 328 328 327 327 327 326 326 327 326 327
335 334 334 334 334 334 334 333 332 332 332 332 332 332 332 331 331 330 331 331 331 330 330 330 332 332 333 333 333 333 333 333 332 332 332 331 331 331 331 331 330 330 331 332 331 330 329 329 329 329 329 329 327 326 326 326 325 326 325 325 325 326 326
335 333 333 334 334 333 332 332 332 331 331 332 331 331 330 330 330 330 329 329 329 329 328 328 328 329 330 330 330 331 333 333 333 332 331 331 330 330 331 330 329 329 330 331 331 330 330 330 329 329 329 329 327 325 325 325 325 325 325 325 325 325 325
333 333 333 333 333 332 332 332 331 331 330 330 331 330 330 330 330 330 329 328 329 328 327 328 327 327 327 327 328 329 331 332 333 332 331 330 329 329 330 330 328 329 329 330 330 330 330 330 329 329 329 328 327 325 324 324 325 325 325 325 325 325 324
333 333 333 333 332 332 331 331 330 330 329 329 329 329 329 330 329 329 328 328 328 327 327 327 326 326 326 327 328 328 330 332 333 333 332 331 330 329 329 329 328 329 330 329 330 330 329 330 329 329 328 326 326 325 324 324 324 324 325 325 325 324 324
334 333 333 332 331 330 330 329 329 329 328 328 328 328 329 329 329 328 328 327 327 327 327 326 325 326 327 327 327 328 330 332 333 332 332 332 331 330 330 329 329 330 330 330 330 329 329 329 329 329 327 325 325 324 323 323 323 323 323 323 324 324 323
335 334 332 331 331 331 330 329 328 328 327 328 328 328 328 328 328 328 328 327 326 326 325 325 326 326 327 326 326 327 329 331 332 332 332 332 332 332 331 330 330 330 330 330 330 329 329 329 329 328 326 326 325 324 323 321 321 321 321 321 322 323 323
335 333 330 331 332 330 329 328 327 326 327 327 327 328 328 328 328 328 327 327 326 325 324 325 326 325 325 325 325 326 327 328 330 331 330 331 332 331 332 331 330 330 330 330 330 329 328 328 328 326 325 324 323 322 322 321 320 320 320 320 320 322 322
333 331 331 331 331 330 328 327 327 327 327 326 327 327 328 328 328 327 325 324 324 324 324 324 324 323 323 323 324 325 325 325 326 327 326 327 329 330 331 331 330 330 330 330 329 329 328 327 327 325 323 322 322 322 321 320 320 320 319 318 318 319 320
330 330 330 328 327 328 328 327 327 327 327 327 327 327 327 327 327 324 322 323 324 324 323 323 322 321 322 322 323 323 323 323 324 324 323 324 326 329 330 330 330 330 330 330 329 329 329 328 325 323 322 321 321 321 320 320 320 319 318 317 317 316 316
329 330 330 327 326 328 329 327 327 327 326 326 326 326 327 327 325 322 321 322 323 323 323 323 321 319 320 321 321 321 322 322 322 321 322 323 325 328 329 330 330 330 330 330 330 330 329 327 323 322 321 320 319 320 320 320 319 319 318 317 315 314 313
330 329 329 329 329 329 329 328 327 326 326 325 325 325 326 326 324 322 322 322 322 321 322 323 321 320 320 320 320 320 320 320 319 319 321 323 325 327 329 330 330 330 330 330 330 329 328 325 321 319 319 318 318 318 318 319 319 319 318 316 314 313 312
330 329 329 329 329 329 329 328 327 326 325 324 325 326 326 324 323 323 322 321 320 319 320 322 322 321 320 320 320 319 319 318 318 319 320 322 323 325 327 328 329 329 330 330 329 328 326 323 320 319 318 317 318 317 317 317 318 319 318 316 314 312 311
330 329 329 329 329 328 327 327 326 325 324 324 325 325 324 323 322 322 321 320 319 318 319 321 322 321 320 320 320 318 317 317 318 319 319 321 322 323 324 326 327 329 329 328 328 327 325 322 320 320 319 318 318 317 316 315 316 318 319 316 313 311 311
330 329 328 328 328 327 327 327 326 324 323 324 325 324 323 323 322 321 320 320 318 318 319 320 321 321 320 319 318 317 317 317 318 319 319 319 321 322 323 323 326 328 328 327 325 323 322 321 320 319 319 319 318 318 317 316 315 317 317 316 313 312 311
330 329 328 328 328 327 327 326 325 323 322 323 323 323 323 322 322 321 320 319 317 317 318 320 320 320 319 318 317 318 318 318 319 319 318 318 319 321 322 322 324 326 326 325 323 322 322 321 319 318 319 320 320 319 318 317 317 316 316 315 314 313 311
329 329 328 327 327 327 327 326 324 323 322 322 322 322 322 322 321 321 320 318 317 317 318 319 320 319 318 318 317 318 318 319 319 319 318 318 318 319 320 321 322 323 324 324 323 322 321 321 320 320 319 320 320 321 320 318 318 317 316 315 315 313 312
329 329 328 327 327 326 326 325 324 323 323 322 321 321 321 321 321 321 319 318 317 317 317 318 319 319 319 319 319 318 318 318 319 318 318 318 317 318 319 319 320 321 322 323 323 322 321 321 320 320 320 319 319 320 321 319 318 317 317 317 315 314 313
328 328 328 328 327 326 325 324 324 323 322 321 321 321 320 320 320 320 319 317 317 317 316 317 318 318 319 319 319 319 319 318 318 318 318 318 318 318 318 318 319 319 320 321 321 321 321 320 320 319 318 318 317 319 320 320 319 318 318 317 315 315 315
326 327 327 327 326 325 325 324 323 322 321 321 321 320 318 318 319 319 318 317 317 317 317 318 318 318 318 319 319 320 320 319 319 320 320 320 320 320 319 319 318 318 319 319 319 319 319 319 319 318 318 318 317 318 320 320 319 319 319 317 316 316 316
324 325 325 324 324 324 324 324 323 321 320 320 320 319 318 318 319 319 319 318 317 318 319 319 319 319 318 319 320 320 321 320 320 321 322 322 322 322 321 321 320 320 320 320 319 319 319 319 319 318 318 319 318 319 320 320 320 319 319 318 317 316 316
322 323 323 322 321 321 322 322 323 322 322 321 320 319 318 318 319 320 320 320 320 320 320 320 320 320 319 320 321 322 322 322 322 322 322 322 322 323 322 322 322 322 321 320 320 320 319 319 319 320 320 319 319 319 319 320 320 320 320 319 318 316 316
321 321 321 321 319 319 319 320 320 320 321 322 321 320 319 318 319 319 320 321 322 321 322 322 320 319 319 321 322 322 323 323 323 323 322 323 323 323 323 323 323 321 320 320 320 320 320 320 320 320 320 320 319 319 319 319 319 320 320 319 318 316 316
321 320 320 319 319 318 318 318 318 317 318 319 319 319 320 319 319 318 318 319 321 322 322 320 317 318 319 321 322 323 324 324 324 324 323 324 324 325 324 324 324 323 321 321 321 320 320 320 320 320 319 319 319 319 318 318 319 318 318 318 317 316 316
319 319 319 318 318 318 318 317 316 316 316 317 317 318 319 318 318 317 317 317 319 321 321 318 316 317 318 319 320 322 324 325 325 324 325 325 325 325 325 325 326 325 324 323 322 322 321 320 320 320 319 319 319 319 318 317 317 318 318 317 316 316 316
320 319 319 319 318 318 318 316 315 314 315 315 315 317 318 318 317 317 318 317 317 319 320 319 318 318 318 318 319 321 323 326 325 325 325 325 325 325 325 325 326 326 326 324 323 323 323 321 320 319 319 319 319 319 319 317 316 316 317 317 317 316 316
320 320 320 320 319 318 318 317 315 315 316 315 315 317 318 318 317 318 318 318 318 320 320 319 319 319 319 319 319 320 322 325 326 326 326 326 326 325 325 325 325 325 325 325 324 323 323 323 322 320 320 320 319 319 319 318 316 315 316 316 317 317 317
320 320 320 320 319 319 319 318 316 315 317 316 317 318 318 318 318 318 318 319 321 322 320 318 319 319 319 320 320 320 321 323 325 325 325 326 326 326 325 325 325 324 324 324 325 323 322 322 321 320 320 320 320 319 319 318 316 316 316 317 318 319 320
316 318 319 319 319 319 319 319 318 317 318 318 318 319 319 319 319 320 319 320 322 322 320 318 319 319 319 320 319 320 321 323 323 324 324 325 325 325 325 324 324 324 323 324 324 322 320 319 320 320 319 319 319 319 318 317 316 315 316 317 318 320 320
312 313 316 318 318 317 318 319 319 320 320 320 320 320 320 320 320 321 321 321 322 322 319 318 318 318 319 319 318 320 322 322 323 323 323 323 323 323 324 323 323 323 324 323 323 321 319 318 319 319 319 319 319 318 317 316 316 315 316 316 316 317 317
309 310 312 314 315 315 316 317 318 319 320 321 320 320 320 320 320 320 320 320 321 320 318 318 318 318 318 319 318 319 321 321 322 322 322 322 322 322 323 322 320 320 322 322 321 320 319 318 318 319 319 319 319 318 316 315 315 315 315 315 315 315 315
306 307 308 309 310 311 312 314 315 315 315 316 317 317 319 319 318 318 318 317 318 318 317 316 318 318 318 318 318 319 320 320 321 321 322 322 322 322 322 322 320 319 319 320 320 319 318 318 318 319 319 318 318 318 315 314 315 315 314 313 313 312 311
304 305 305 306 307 308 309 311 314 313 312 313 313 313 314 314 313 313 313 313 313 314 313 312 314 316 316 316 316 316 318 319 320 321 322 322 322 322 322 321 321 319 317 317 317 318 318 318 319 319 318 318 318 318 316 314 314 313 312 311 310 309 309
303 304 304 305 306 306 307 308 310 310 310 310 310 310 310 310 310 309 309 309 309 310 309 309 310 311 312 313 313 313 314 315 315 316 317 317 318 320 319 319 319 317 314 314 315 316 317 318 319 318 318 318 318 317 316 314 312 311 311 310 309 309 308
302 303 304 304 305 305 306 306 307 308 308 307 307 307 308 309 308 308 307 306 307 307 307 306 306 307 308 309 309 310 311 311 311 311 313 315 316 316 316 317 315 311 309 311 314 315 316 317 318 318 317 316 316 315 315 313 311 311 311 310 309 309 309
299 300 302 303 304 304 304 305 305 306 307 307 307 308 308 308 308 308 307 307 307 306 305 303 302 303 304 305 305 306 307 308 308 309 312 314 314 314 314 314 312 308 305 307 310 312 314 316 317 317 316 316 314 313 313 312 311 310 311 310 309 309 308
296 297 298 299 301 302 302 303 303 304 305 306 306 306 306 307 307 307 307 307 307 307 307 305 303 301 301 302 303 303 303 304 305 305 308 311 312 311 310 310 308 307 306 306 306 307 309 312 315 316 316 316 314 310 310 310 310 310 310 309 309 308 307
Wind_Speed
11 11 11 11 11 11 11 11 10 10 9 8 7 7 7 7 7 7 7 7 7 7 8 7 6 6 6 6 5 5 4 5 5 5 5 7 7 6 5 3 2 1 3 3 4 7 6 5 6 6 7 7 6 5 5 5 5 4 4 4 4 5 5
10 11 11 11 11 11 12 11 10 10 9 8 8 7 8 8 7 8 7 7 7 6 6 6 6 6 6 6 5 5 4 4 5 4 4 7 7 7 7 7 5 5 4 3 4 6 5 5 6 6 8 8 7 6 5 5 4 4 4 5 5 6 5
11 12 11 11 12 13 12 12 10 10 9 9 8 8 8 7 7 7 7 6 6 5 4 4 5 5 5 5 4 5 5 4 5 5 5 7 7 6 6 7 7 7 6 5 5 4 4 5 5 7 9 8 7 7 5 5 5 5 6 6 7 7 8
12 13 13 13 14 13 12 11 10 9 9 9 9 8 8 7 7 7 6 6 5 4 3 3 3 3 3 3 4 4 5 5 5 6 6 6 7 7 7 8 9 7 5 5 6 6 5 5 5 8 9 8 8 7 6 6 6 7 9 9 9 9 10
13 14 14 14 14 13 12 12 11 10 10 9 9 9 8 7 7 7 7 6 6 5 4 3 2 2 2 3 3 4 5 6 5 6 6 5 6 7 7 9 9 7 5 4 5 6 5 5 7 8 9 9 8 8 8 8 7 7 9 10 10 10 11
14 14 13 13 13 12 13 13 12 12 11 11 10 9 9 8 8 8 7 7 6 6 5 3 2 2 2 2 3 4 5 5 5 5 5 5 6 6 5 7 6 5 5 3 5 6 5 7 8 8 9 10 9 10 11 10 9 9 9 10 10 11 12
14 14 13 13 13 13 13 13 12 12 11 11 11 10 10 9 8 8 7 6 6 6 5 4 4 3 3 3 4 6 6 6 6 5 4 5 6 5 5 5 5 5 4 4 5 6 6 7 8 9 10 10 10 11 11 10 10 10 9 10 10 11 11
13 13 12 12 13 13 13 12 11 11 11 11 11 10 10 10 9 8 7 6 6 6 6 6 6 5 4 4 5 7 7 7 6 5 5 5 5 5 4 4 5 5 4 4 5 6 7 7 8 10 10 8 8 9 9 10 10 10 10 10 10 10 11
12 11 11 13 14 13 13 12 10 10 11 11 11 11 11 10 9 8 6 6 7 8 8 7 6 6 6 6 6 7 7 7 6 6 5 5 4 4 4 4 5 6 5 5 6 6 6 7 8 8 8 7 7 6 7 8 8 9 10 10 10 9 10
12 11 11 15 16 13 12 12 10 10 11 11 11 11 11 10 9 8 7 8 9 9 8 7 7 7 7 7 8 8 8 7 7 6 5 5 4 3 4 5 5 6 6 6 6 6 6 7 8 7 6 6 7 6 6 5 7 9 10 10 10 10 10
13 11 12 15 16 13 12 12 11 11 11 11 11 11 11 11 10 9 8 9 9 8 8 8 8 8 8 9 9 9 8 8 7 5 4 4 4 3 4 5 5 6 7 7 7 7 7 8 8 7 5 5 6 6 7 6 6 9 9 8 9 11 11
13 12 12 14 14 13 12 12 11 11 11 11 11 12 12 12 11 9 9 8 8 8 8 8 9 9 9 9 9 8 8 7 6 6 5 5 4 4 5 6 6 7 8 8 8 8 9 10 8 7 6 6 5 5 7 7 6 8 9 8 9 11 11
14 13 13 14 13 13 12 12 11 11 11 11 11 13 13 13 11 10 9 8 8 7 8 9 9 9 9 8 8 7 7 6 7 7 6 5 5 6 7 7 8 8 8 9 10 10 11 10 8 7 7 7 7 6 6 7 7 8 7 7 9 10 11
16 14 14 14 14 14 13 12 11 10 10 10 12 13 13 12 12 11 10 9 8 8 9 10 10 10 9 8 7 7 7 7 8 8 7 6 6 6 7 8 8 9 9 10 11 11 12 11 8 7 7 6 7 6 5 6 9 9 7 7 9 10 11
17 15 15 15 15 15 15 13 12 11 10 10 12 13 13 12 12 11 10 9 9 9 10 11 11 10 9 8 7 7 7 8 8 8 7 7 7 7 7 8 9 9 9 10 11 11 11 10 8 7 6 5 5 5 3 5 8 9 9 8 9 10 11
17 16 15 16 16 15 14 14 13 12 11 11 12 13 12 12 12 11 11 10 10 10 11 11 10 10 9 8 8 8 8 8 8 8 7 7 8 7 7 8 9 9 9 10 10 9 9 8 6 6 6 4 4 3 3 3 6 9 10 11 11 11 12
16 16 16 15 15 15 15 14 13 12 12 11 11 11 11 12 12 11 11 11 10 10 11 11 10 10 9 9 9 9 9 8 8 7 7 6 7 7 7 7 7 8 8 8 8 7 7 6 4 4 4 3 4 4 4 4 5 7 10 11 11 11 12
12 13 14 14 15 15 14 14 13 12 12 11 11 10 11 12 11 11 11 10 11 11 11 11 11 10 10 9 9 9 8 8 8 7 7 6 6 6 6 6 6 6 6 6 6 6 5 5 5 4 4 4 5 6 6 7 7 8 9 11 12 12 12
10 10 10 11 13 14 14 13 13 12 11 11 11 10 10 11 11 10 10 10 10 10 11 11 11 10 10 9 9 8 8 8 7 7 7 6 6 5 5 5 5 5 5 5 5 5 5 6 6 6 6 6 6 6 8 10 10 10 11 11 12 12 13
13 12 10 9 9 10 12 13 12 11 11 11 10 10 10 11 11 10 9 9 10 10 10 10 10 10 10 9 9 8 7 7 6 6 6 5 5 5 5 5 4 4 4 4 4 5 5 6 6 7 6 6 6 6 8 10 11 13 13 13 13 14 14
16 16 15 13 10 9 11 12 11 10 10 10 9 9 9 10 10 9 8 8 9 9 9 9 9 10 10 9 8 7 7 6 6 5 4 4 4 4 4 4 4 3 3 3 4 4 5 5 5 6 6 6 6 7 8 9 11 14 14 13 13 14 14
17 16 16 16 14 12 11 12 11 10 9 8 8 7 8 10 9 8 7 6 8 9 8 8 9 9 9 8 7 6 6 6 5 5 5 4 4 4 4 4 3 4 4 4 4 4 5 5 5 5 5 5 6 7 8 9 11 13 14 14 14 14 15
17 17 16 15 15 14 14 13 13 11 10 8 7 7 7 8 8 8 7 6 6 7 6 7 9 11 10 8 6 6 6 6 6 6 5 5 5 4 4 4 4 5 6 6 6 6 6 6 7 7 6 6 7 8 9 9 11 12 13 14 15 15 15
15 16 17 15 14 15 16 14 11 10 10 8 7 7 6 7 7 7 8 7 6 6 6 7 10 10 10 9 7 6 6 6 6 6 6 6 6 6 6 5 5 6 7 7 8 9 9 9 9 10 10 10 10 11 11 11 12 13 14 14 15 15 15
14 15 17 17 17 17 16 13 8 6 6 6 5 5 5 6 6 6 7 8 6 6 7 8 9 9 9 8 8 7 7 7 7 7 7 7 7 7 7 7 6 7 8 9 10 10 11 13 13 13 13 13 13 14 14 15 14 14 14 15 15 15 15
13 13 14 17 17 15 14 14 11 5 3 4 3 2 4 6 8 9 9 9 8 7 7 8 9 10 9 9 8 8 7 7 8 8 8 8 8 8 7 7 7 7 8 11 12 11 11 13 15 16 17 17 17 17 18 18 18 18 17 15 16 16 16
12 11 10 12 13 12 12 16 16 10 6 4 3 2 5 7 10 11 10 9 8 8 8 8 9 9 9 9 9 9 8 7 7 8 8 8 8 8 8 8 8 9 9 10 11 11 11 11 13 16 17 17 18 18 19 19 20 20 19 17 17 17 16
12 11 11 12 12 11 10 12 13 11 6 5 5 6 8 8 8 8 8 8 7 7 8 9 8 9 9 9 10 9 9 9 9 9 8 8 8 8 9 9 9 10 10 10 11 12 12 12 13 14 15 16 15 15 16 19 20 19 18 15 14 13 12
13 12 12 12 11 10 9 9 9 8 6 6 7 7 7 6 5 5 5 6 6 5 7 7 7 8 8 8 8 7 7 8 9 10 9 9 9 9 9 9 10 10 11 11 12 14 14 14 15 16 16 16 14 13 16 21 21 20 19 16 13 12 12
15 13 13 13 11 10 10 8 8 7 6 6 6 6 5 5 4 4 4 4 5 4 4 5 5 6 6 7 7 5 5 7 8 9 10 10 9 9 9 10 10 10 10 11 13 15 16 15 15 16 16 16 14 12 16 20 20 19 19 19 18 18 17
17 15 14 13 12 11 10 10 10 9 8 7 6 6 6 6 5 5 4 4 5 4 2 2 3 3 4 5 6 5 5 7 8 8 9 9 9 8 9 11 12 10 10 12 14 15 16 14 14 15 15 16 15 12 14 18 19 19 19 18 17 17 17
22 20 18 17 15 14 13 13 13 12 10 9 8 7 7 7 6 6 5 4 5 5 3 1 1 1 2 3 3 4 6 8 9 9 8 8 8 7 8 11 12 11 10 12 15 16 14 12 14 15 14 14 15 13 14 18 20 19 18 17 15 14 14
22 21 20 19 18 17 17 17 16 15 13 13 12 11 10 9 9 9 9 8 8 8 6 5 4 2 1 0 1 2 3 5 8 7 7 7 7 7 9 9 8 8 8 10 12 13 13 12 13 14 13 12 14 14 15 18 19 17 16 14 13 13 14
16 15 15 14 14 14 15 15 15 15 14 14 15 14 12 11 11 11 11 11 10 9 7 7 7 6 5 4 3 2 2 2 4 3 3 5 6 7 8 5 3 5 8 9 9 10 11 11 12 13 13 12 12 14 14 15 16 15 13 12 13 13 13
12 11 11 10 11 11 11 11 11 11 11 13 13 13 11 9 9 10 10 10 9 7 5 5 6 6 6 6 6 6 5 2 2 1 1 3 4 5 5 3 4 7 9 9 8 9 9 11 12 14 16 15 13 13 13 12 13 15 13 13 14 14 13
12 11 11 10 10 10 10 9 9 8 7 8 9 10 8 7 6 6 7 8 8 7 6 6 6 6 5 5 5 5 5 3 2 2 1 3 3 3 2 2 6 9 10 9 9 9 9 10 12 15 17 18 15 14 13 12 13 15 14 14 15 14 14
12 11 11 11 11 11 10 10 9 9 8 7 7 7 6 5 5 5 5 5 6 6 5 5 6 7 7 6 6 6 5 5 4 4 4 3 3 3 3 5 7 9 9 9 10 10 11 11 13 14 15 18 19 15 12 12 13 13 13 13 13 13 13
Wind_Direction
165 164 168 171 170 169 168 167 167 165 165 166 162 165 167 168 169 166 165 166 169 174 177 183 187 184 179 177 184 190 193 185 189 205 186 179 192 187 184 198 192 159 169 194 193 175 169 140 135 131 123 124 116 106 104 103 101 97 105 119 120 106 95
158 157 160 164 165 163 161 162 162 160 159 161 162 165 167 167 166 162 161 161 160 168 177 181 179 175 170 171 178 180 186 186 192 214 194 187 201 186 179 196 192 176 179 190 202 197 175 145 148 144 138 134 116 101 99 105 103 95 100 107 109 106 102
150 154 158 161 163 161 158 158 161 163 161 159 161 164 164 162 159 155 155 153 153 163 173 173 171 171 173 179 184 179 180 186 191 203 200 196 205 198 190 198 195 189 187 179 189 197 169 154 152 148 152 152 131 111 98 101 106 110 110 105 104 107 106
154 159 162 163 162 157 156 158 160 162 161 160 160 157 157 157 153 149 149 148 147 154 158 161 166 171 189 197 200 194 188 188 188 194 203 205 205 202 200 208 213 209 196 182 183 184 173 162 150 146 151 148 134 120 108 108 115 120 117 111 108 106 105
164 167 166 165 161 157 159 161 162 161 161 164 163 161 159 159 157 152 151 149 147 152 156 158 164 177 200 200 199 195 187 184 183 187 199 210 210 203 197 204 214 212 201 189 177 177 175 159 151 147 144 139 128 122 126 128 123 119 113 111 112 108 104
172 173 169 164 161 164 165 164 164 163 164 167 167 167 166 163 162 159 157 155 152 156 159 160 164 170 178 179 172 167 166 168 170 177 186 195 201 200 196 202 208 198 189 183 171 170 162 150 151 148 144 142 138 138 143 140 130 124 116 112 112 110 107
174 173 169 165 163 165 164 163 163 162 162 163 163 166 167 167 165 161 158 155 152 155 155 155 154 152 153 150 143 142 142 144 150 158 160 167 182 192 196 201 203 190 175 165 167 167 158 153 155 152 147 146 147 148 148 143 137 131 123 117 114 112 111
174 172 166 162 162 160 157 157 158 159 159 160 162 164 166 167 163 159 157 153 150 149 148 148 147 146 143 134 131 131 128 130 134 140 144 152 173 189 192 192 190 180 166 160 166 164 158 157 157 158 155 152 150 147 145 143 139 133 129 126 121 118 118
174 168 162 161 160 155 155 156 156 158 160 161 164 166 166 165 160 157 154 149 147 143 143 145 143 141 133 123 126 127 124 125 125 122 126 136 155 176 184 185 179 171 164 163 161 155 153 153 154 158 158 155 151 144 147 147 137 133 136 133 126 124 127
176 169 166 168 166 158 155 159 160 162 163 164 167 169 167 163 158 155 152 148 147 143 142 143 138 133 126 120 121 120 118 119 116 112 114 124 133 148 167 174 170 160 156 156 153 149 148 148 150 154 155 155 155 154 153 147 142 144 146 143 137 134 134
178 172 166 168 168 163 161 165 166 167 168 169 170 170 167 161 158 155 151 150 151 149 147 143 136 132 125 119 117 115 116 116 112 111 114 124 128 130 149 160 160 152 149 150 148 144 143 142 143 146 144 144 152 158 154 148 146 148 150 151 146 145 144
180 175 167 166 168 169 171 171 170 171 171 172 170 168 166 162 160 158 154 153 154 155 155 150 143 137 131 127 124 120 120 121 118 116 118 126 131 130 140 149 148 144 144 146 145 142 142 142 139 133 122 112 110 128 147 148 144 144 152 155 146 148 151
183 177 171 170 173 176 179 177 173 172 170 169 168 166 166 165 162 159 156 156 155 155 158 158 152 146 141 138 135 133 134 134 128 123 121 124 129 130 132 138 139 139 144 146 143 145 145 144 138 124 115 110 102 106 133 142 139 139 147 151 148 151 154
185 180 176 175 176 177 182 181 177 173 170 168 168 168 169 168 166 163 159 157 157 155 156 159 159 154 150 146 142 141 144 142 134 127 123 120 124 126 124 126 132 136 144 146 145 149 149 148 143 125 117 118 114 114 127 133 137 140 141 149 156 158 160
184 180 175 175 176 175 177 178 175 173 172 172 173 174 174 172 170 167 163 160 157 155 153 156 159 157 152 148 144 143 145 143 133 125 122 116 116 120 120 122 129 133 139 143 145 150 152 155 158 143 132 130 125 128 140 136 139 148 154 163 168 167 170
183 178 174 175 176 174 173 174 175 174 174 175 176 178 180 178 175 171 166 163 159 156 153 152 153 153 150 145 142 140 138 136 132 126 122 114 111 114 118 122 127 130 135 139 143 150 156 163 169 161 153 152 149 155 171 163 156 158 164 173 180 178 178
180 175 173 175 175 174 173 172 174 175 175 175 176 178 180 179 178 174 169 166 162 159 155 152 150 148 146 142 138 135 134 133 132 128 122 114 111 111 115 123 130 134 139 144 148 154 162 167 174 180 175 175 188 195 202 208 196 178 173 177 186 187 180
175 175 176 178 176 174 172 171 173 175 176 176 174 174 177 178 178 177 174 170 166 162 158 155 153 149 144 141 135 134 135 134 130 127 122 118 118 117 121 129 134 143 152 158 163 169 176 182 195 212 216 217 217 213 213 219 217 204 191 182 185 189 183
164 172 175 178 178 176 172 168 170 174 175 175 174 174 176 177 177 177 176 172 166 163 160 157 155 153 148 144 139 134 134 135 132 130 127 124 124 125 130 139 144 156 168 176 183 190 196 202 214 224 228 234 228 214 214 217 214 210 207 194 187 187 185
173 174 162 154 161 170 172 168 168 172 173 172 173 175 176 175 177 179 178 173 166 160 159 157 157 157 154 149 146 141 138 141 138 134 133 131 132 132 134 144 156 168 180 189 194 202 208 213 222 226 228 237 238 226 219 218 213 209 209 202 192 191 191
187 192 184 175 167 161 164 164 161 163 167 170 173 176 174 174 176 177 175 169 163 159 158 158 158 160 160 155 151 148 147 150 151 148 148 143 142 147 148 149 159 171 188 202 202 209 217 220 229 234 230 232 237 235 228 221 214 209 208 206 201 198 195
190 199 196 190 184 170 161 158 154 152 153 160 168 170 170 172 173 174 172 165 159 158 161 163 163 165 164 160 156 154 154 161 167 169 173 171 166 170 170 168 177 193 204 212 213 220 229 233 243 250 246 242 241 240 236 230 222 214 210 210 210 205 200
185 187 183 182 181 175 167 160 159 159 152 147 155 157 159 166 168 172 179 172 158 158 166 173 173 171 168 167 168 171 170 173 180 182 186 192 193 196 200 200 208 219 225 230 235 241 243 245 250 252 252 251 248 247 244 237 231 225 219 218 219 215 210
169 171 172 172 172 170 163 151 147 155 156 153 157 159 162 171 173 179 189 186 170 167 180 188 185 182 180 179 180 188 191 187 188 191 196 202 205 210 214 217 226 236 240 241 247 253 255 254 254 253 251 249 248 248 248 246 241 236 232 229 227 223 222
158 163 168 169 171 171 163 149 131 129 147 154 159 171 180 181 182 190 200 201 194 191 197 202 201 202 204 202 199 202 205 202 200 203 208 214 217 218 219 223 231 240 243 243 246 252 256 256 255 253 252 251 250 247 246 248 247 243 242 241 238 233 232
149 159 167 169 172 173 168 167 170 175 191 181 176 209 208 193 193 200 206 210 213 215 214 215 215 214 216 220 220 219 219 217 217 216 218 222 226 228 228 231 237 242 247 252 253 252 254 256 257 256 253 252 252 248 246 245 244 243 246 248 247 243 239
134 143 154 156 160 163 160 167 181 197 214 204 198 223 214 205 206 206 205 205 207 212 218 223 223 221 219 224 230 233 233 231 229 229 229 229 233 238 240 244 249 250 252 254 253 251 251 253 258 259 255 250 249 248 246 244 242 242 243 246 250 252 248
119 127 136 137 144 155 156 164 181 191 193 187 187 195 200 205 210 208 204 197 190 203 223 230 231 230 227 227 232 236 239 240 239 238 236 234 238 243 247 251 256 257 258 255 250 252 257 259 261 262 257 249 245 242 240 240 240 240 238 240 247 249 241
104 111 123 124 125 136 140 148 162 167 162 163 168 174 178 184 193 197 194 182 170 195 225 228 230 234 231 228 231 231 237 244 243 242 241 239 242 245 245 247 252 256 260 256 251 257 269 272 266 261 257 251 242 236 238 241 240 238 236 235 234 230 224
95 95 104 108 105 108 115 123 132 135 136 139 146 150 143 144 159 160 160 162 160 181 213 209 211 226 228 228 229 222 232 245 243 242 244 243 243 245 243 244 247 252 258 258 257 263 272 273 262 254 252 247 236 230 239 241 236 232 233 235 235 236 235
91 87 90 95 97 99 104 111 114 115 117 118 122 129 127 130 141 141 142 154 147 138 158 181 181 201 220 230 230 225 242 252 247 245 248 245 243 244 245 248 252 255 257 259 260 264 269 265 251 245 244 238 230 223 228 233 229 225 226 228 229 232 229
90 89 89 92 95 94 97 106 110 107 104 105 102 103 111 117 119 116 109 112 119 109 84 64 108 164 215 240 240 236 249 257 254 254 255 249 245 245 248 257 267 272 268 260 257 261 266 258 241 239 240 234 230 225 225 229 227 222 223 222 217 213 204
86 88 90 93 95 94 97 106 112 111 110 112 109 105 104 105 104 103 98 97 103 98 81 71 73 77 74 14 277 230 243 266 272 271 268 268 267 260 255 258 265 274 279 272 261 260 264 256 241 241 244 238 232 228 226 228 225 216 212 207 195 187 181
76 78 81 85 88 90 94 100 105 106 109 112 112 109 105 101 102 104 102 99 101 97 82 72 70 69 65 56 52 71 76 319 308 310 297 297 293 279 273 272 267 283 301 304 288 269 263 256 245 246 248 249 251 245 229 217 213 206 194 182 176 170 168
65 64 63 69 76 80 83 87 89 94 100 101 101 101 102 101 99 99 96 90 88 86 76 65 63 63 63 59 56 64 68 41 359 25 318 278 275 274 281 290 286 296 313 320 309 293 276 259 248 244 242 246 261 260 235 205 195 196 189 182 181 176 172
69 66 61 60 65 68 69 69 71 76 86 94 97 97 101 107 107 102 98 91 87 89 85 67 51 46 49 46 43 52 59 47 31 27 318 280 277 285 303 299 290 299 310 312 305 302 294 273 260 252 243 241 249 254 239 211 194 195 195 191 188 183 178
67 68 66 60 57 57 59 60 60 60 61 71 83 85 87 98 106 106 102 95 91 93 91 69 42 35 36 32 25 23 15 1 353 346 331 318 315 318 311 296 293 298 303 303 297 293 290 280 271 264 252 242 241 242 234 216 199 197 199 196 192 188 181